"Pseudo-MPEC" for P11JWp2

Created 2023 Oct 21 5:22:13 UT using Find_Orb

Click here for an explanation of pseudo-MPECs

 
 Astrometry: 
     P11JWp2* C2023 09 18C(UNh0Jonld4EAstrometry#k1-h_UKqo5t1]kredacted;CZtxbF51
     P11JWp2  C2023 09 18c2eWYOE$RJ=38clickB=M:fciRZuZTMBJ6.5GgdGFpMp3:bi]Y=wF51
     P11JWp2  C2023 09 18EZfQZGnUT6ZDxoF@4mf^@6LZR;q12I0l5b6herehtFvdAcOA]=4IF51
     P11JWp2  C2023 09 18.9NBEC:VVc@R\)i%Wi!vIv9R=vpQyLfor9l\7explanationCvGyF51
     P11JWp2 KC2023 09 19.12670622 06 11.840+22 46 16.70   ~9J47       VNEOCPV06
     P11JWp2 KC2023 09 19.13464922 06 11.360+22 46 10.60   ~9J47       VNEOCPV06
     P11JWp2 KC2023 09 19.15052422 06 10.480+22 46 00.40   ~9J47       VNEOCPV06

Station data:
(F51) Pan-STARRS 1, Haleakala  (N20.707234 W156.255910)  US/Hawaii.
   Observers J. Bulger, T. Lowe, A. Schultz, M. Willman. Measurers K.
   Chambers, S. Chastel, T. de Boer, L. Denneau, J. Fairlamb, H. Flewelling,
   M. Huber, C.-C. Lin, E. Magnier, Y. Ramanjooloo, R. Wainscoat, R. Weryk.
   1.8-m Ritchey-Chrétien + CCD.
(V06) Catalina Sky Survey-Kuiper  (N32.416844 W110.732550)  US/Arizona.
   Observers T. A. Pruyne, B. M. Africano, E. J. Christensen, G. A. Farneth,
   D. C. Fuls, A. R. Gibbs, A. D. Grauer, H. Gröller, J. A. Johnson, R. A.
   Kowalski, S. M. Larson, G. J. Leonard, D. Rankin, R. L. Seaman, F. C.
   Shelly, K. W. Wierzchoś. 1.55-m reflector + CCD.

Orbital elements:  P11JWp2
   Perihelion 2022 Jun 25.83235 +/- 280 TT = 19:58:35 (JD 2459756.33235)
Epoch 2023 Sep 19.0 TT = JDT 2460206.5   Earth MOID: 0.6975      AutoNEOCP
M 168.81488029 +/- 100              (J2000 ecliptic)
n   0.37500447 +/- 0.0674           Peri.  285.13518 +/- 52
a   1.90448877 +/- 0.228            Node   251.80316 +/- 20
e   0.1529351 +/- 0.133             Incl.   18.25426 +/- 2.8
P   2.63/959.97d           H 19.62  G  0.15   U 11.0  SR
q 1.61322554 +/- 0.168    Q 2.19575200 +/- 0.723
From 7 observations 2023 Sept. 18-19 (20.5 hr); mean residual 0".22
Residuals in arcseconds: 
230918 F51  .10+  .03-    230918 F51  .26-  .12-    230919 V06  .14-  .17+    
230918 F51  .15+  .07-    230919 V06  .38+  .27+    
230918 F51  .00   .22+    230919 V06  .17-  .44-    

Ephemerides (geocentric):
Date (UTC) HH   RA             Dec           delta  r     elong  mag " sig PA
---- --------  ------------   ------------  ------ ------ -----  --- --------
2023 10 21 05  21 54 41.013   +15 54 12.50  1.4697 2.1957 124.8 23.2 3554  23
2023 10 21 06  21 54 41.517   +15 53 42.32  1.4701 2.1957 124.8 23.2 3563  23
2023 10 21 07  21 54 42.024   +15 53 12.17  1.4704 2.1957 124.7 23.2 3572  23
2023 10 21 08  21 54 42.534   +15 52 42.03  1.4707 2.1957 124.7 23.2 3580  23
2023 10 21 09  21 54 43.048   +15 52 11.90  1.4711 2.1957 124.7 23.2 3589  24
2023 10 21 10  21 54 43.566   +15 51 41.79  1.4714 2.1957 124.6 23.2 3598  24
2023 10 21 11  21 54 44.087   +15 51 11.70  1.4718 2.1957 124.6 23.2 3606  24
2023 10 21 12  21 54 44.611   +15 50 41.63  1.4721 2.1957 124.6 23.2 3615  24
2023 10 21 13  21 54 45.139   +15 50 11.57  1.4725 2.1957 124.5 23.2 3624  24
2023 10 21 14  21 54 45.670   +15 49 41.53  1.4728 2.1957 124.5 23.2 3633  24
2023 10 21 15  21 54 46.205   +15 49 11.50  1.4732 2.1957 124.5 23.2 3641  24
2023 10 21 16  21 54 46.743   +15 48 41.49  1.4735 2.1957 124.4 23.2 3650  24
2023 10 21 17  21 54 47.285   +15 48 11.50  1.4739 2.1957 124.4 23.2 3659  24
2023 10 21 18  21 54 47.830   +15 47 41.52  1.4743 2.1957 124.4 23.2 3668  24
2023 10 21 19  21 54 48.379   +15 47 11.56  1.4746 2.1957 124.3 23.2 3677  25
2023 10 21 20  21 54 48.931   +15 46 41.62  1.4750 2.1957 124.3 23.2 3685  25
2023 10 21 21  21 54 49.487   +15 46 11.70  1.4753 2.1957 124.3 23.2 3694  25
2023 10 21 22  21 54 50.046   +15 45 41.79  1.4757 2.1957 124.2 23.2 3703  25
2023 10 21 23  21 54 50.608   +15 45 11.89  1.4760 2.1957 124.2 23.2 3712  25
2023 10 22 00  21 54 51.174   +15 44 42.02  1.4764 2.1957 124.2 23.2 3721  25
2023 10 22 01  21 54 51.744   +15 44 12.16  1.4767 2.1957 124.1 23.2 3730  25
2023 10 22 02  21 54 52.317   +15 43 42.32  1.4771 2.1957 124.1 23.2 3739  25
2023 10 22 03  21 54 52.893   +15 43 12.49  1.4774 2.1957 124.1 23.2 3748  25
2023 10 22 04  21 54 53.473   +15 42 42.68  1.4778 2.1957 124.0 23.2 3756  25
2023 10 22 05  21 54 54.056   +15 42 12.89  1.4781 2.1957 124.0 23.2 3765  25
2023 10 22 06  21 54 54.643   +15 41 43.12  1.4785 2.1957 124.0 23.2 3774  26
2023 10 22 07  21 54 55.233   +15 41 13.36  1.4788 2.1957 123.9 23.2 3783  26
2023 10 22 08  21 54 55.827   +15 40 43.62  1.4792 2.1957 123.9 23.2 3792  26
2023 10 22 09  21 54 56.424   +15 40 13.90  1.4795 2.1957 123.9 23.2 3801  26
2023 10 22 10  21 54 57.024   +15 39 44.19  1.4799 2.1957 123.8 23.2 3810  26
2023 10 22 11  21 54 57.628   +15 39 14.50  1.4803 2.1957 123.8 23.2 3819  26
2023 10 22 12  21 54 58.236   +15 38 44.83  1.4806 2.1957 123.8 23.2 3828  26
2023 10 22 13  21 54 58.847   +15 38 15.17  1.4810 2.1957 123.7 23.2 3837  26
2023 10 22 14  21 54 59.461   +15 37 45.54  1.4813 2.1957 123.7 23.2 3846  26
2023 10 22 15  21 55 00.078   +15 37 15.91  1.4817 2.1957 123.7 23.2 3855  26
2023 10 22 16  21 55 00.700   +15 36 46.31  1.4820 2.1957 123.6 23.2 3864  27
2023 10 22 17  21 55 01.324   +15 36 16.72  1.4824 2.1957 123.6 23.2 3873  27
2023 10 22 18  21 55 01.952   +15 35 47.16  1.4827 2.1957 123.6 23.2 3883  27
2023 10 22 19  21 55 02.583   +15 35 17.60  1.4831 2.1957 123.5 23.3 3892  27
2023 10 22 20  21 55 03.218   +15 34 48.07  1.4835 2.1957 123.5 23.3 3901  27
2023 10 22 21  21 55 03.856   +15 34 18.55  1.4838 2.1957 123.5 23.3 3910  27
2023 10 22 22  21 55 04.498   +15 33 49.05  1.4842 2.1957 123.4 23.3 3919  27
2023 10 22 23  21 55 05.143   +15 33 19.57  1.4845 2.1957 123.4 23.3 3928  27
2023 10 23 00  21 55 05.792   +15 32 50.10  1.4849 2.1957 123.4 23.3 3937  27
2023 10 23 01  21 55 06.443   +15 32 20.66  1.4852 2.1957 123.3 23.3 3946  27
2023 10 23 02  21 55 07.099   +15 31 51.22  1.4856 2.1957 123.3 23.3 3955  27
2023 10 23 03  21 55 07.757   +15 31 21.81  1.4860 2.1957 123.3 23.3 3965  27
2023 10 23 04  21 55 08.420   +15 30 52.42  1.4863 2.1957 123.2 23.3 3974  28